When you browse on this site, cookies collect data to enhance your experience and personalize the content and advertising you see.
Visit our Privacy Policy to learn more. By continuing to use the site, you agree to this use of cookies and data.
  • In Netherlands
  • List of Countries
  • For 7 days
  • Water Temperature
  • Satellite Maps
  • Weather Map
  • Weather Widgets
  • user-avatar
    Login

    Hourly Weather Konstantyna

    Today, 21 February, Thursday

    Time Temperature Precipitation Wind Pressure Humidity
    00:00 +6°C° 0 mm 0 mps 714 mmHg 96%
    01:00 +6°C° 0 mm 0 mps 714 mmHg 95%
    02:00 +5°C° 0 mm 0 mps 714 mmHg 94%
    03:00 +5°C° 0 mm 0 mps 714 mmHg 93%
    04:00 +5°C° 0 mm 0 mps 715 mmHg 93%
    05:00 +5°C° 0 mm 0 mps 715 mmHg 92%
    06:00 +5°C° 0 mm 0 mps 715 mmHg 91%
    07:00 +7°C° 0 mm 0 mps 715 mmHg 85%
    08:00 +9°C° 0 mm 0 mps 716 mmHg 78%
    09:00 +11°C° 0 mm 0 mps 717 mmHg 72%
    10:00 +12°C° 0 mm 0 mps 717 mmHg 67%
    11:00 +14°C° 0 mm 1 mps 717 mmHg 62%
    12:00 +15°C° 0 mm 1 mps 717 mmHg 57%
    13:00 +15°C° 0 mm 2 mps 717 mmHg 57%
    14:00 +16°C° 0 mm 2 mps 717 mmHg 56%
    15:00 +16°C° 0 mm 3 mps 717 mmHg 55%
    16:00 +14°C° 0 mm 2 mps 716 mmHg 67%
    17:00 +12°C° 0 mm 2 mps 716 mmHg 78%
    18:00 +9°C° 0 mm 2 mps 716 mmHg 89%
    19:00 +9°C° 0 mm 1 mps 716 mmHg 92%
    20:00 +9°C° 0 mm 1 mps 717 mmHg 94%
    21:00 +8°C° 0 mm 1 mps 717 mmHg 97%
    22:00 +8°C° 0 mm 1 mps 717 mmHg 96%
    23:00 +7°C° 0 mm 0 mps 717 mmHg 94%

    Tomorrow, 22 February, Friday

    Time Temperature Precipitation Wind Pressure Humidity
    00:00 +7°C° 0 mm 0 mps 717 mmHg 93%
    01:00 +7°C° 0 mm 0 mps 717 mmHg 93%
    02:00 +7°C° 0 mm 1 mps 717 mmHg 93%
    03:00 +7°C° 0 mm 1 mps 717 mmHg 93%
    04:00 +6°C° 0 mm 1 mps 717 mmHg 93%
    05:00 +6°C° 0 mm 1 mps 716 mmHg 93%
    06:00 +5°C° 0 mm 1 mps 716 mmHg 93%
    07:00 +7°C° 0 mm 1 mps 717 mmHg 83%
    08:00 +9°C° 0 mm 1 mps 717 mmHg 74%
    09:00 +11°C° 0 mm 1 mps 717 mmHg 65%
    10:00 +12°C° 0 mm 2 mps 717 mmHg 59%
    11:00 +13°C° 0 mm 2 mps 717 mmHg 53%
    12:00 +13°C° 0 mm 3 mps 717 mmHg 47%
    13:00 +13°C° 0 mm 3 mps 716 mmHg 48%
    14:00 +13°C° 0 mm 3 mps 716 mmHg 49%
    15:00 +13°C° 0 mm 4 mps 715 mmHg 51%
    16:00 +11°C° 0 mm 3 mps 715 mmHg 61%
    17:00 +9°C° 0 mm 2 mps 714 mmHg 71%
    18:00 +7°C° 0 mm 2 mps 714 mmHg 82%
    19:00 +7°C° 0 mm 1 mps 714 mmHg 85%
    20:00 +7°C° 0 mm 1 mps 714 mmHg 89%
    21:00 +6°C° 0 mm 1 mps 714 mmHg 92%
    22:00 +6°C° 0 mm 1 mps 714 mmHg 92%
    23:00 +5°C° 0 mm 1 mps 714 mmHg 92%

    Day after tomorrow, 23 February, Saturday

    Time Temperature Precipitation Wind Pressure Humidity
    00:00 +5°C° 0 mm 1 mps 714 mmHg 92%
    01:00 +5°C° 0 mm 1 mps 713 mmHg 91%
    02:00 +4°C° 0 mm 1 mps 713 mmHg 90%
    03:00 +4°C° 0 mm 1 mps 713 mmHg 90%
    04:00 +5°C° 0 mm 1 mps 713 mmHg 87%
    05:00 +6°C° 0 mm 1 mps 714 mmHg 84%
    06:00 +7°C° 0 mm 1 mps 714 mmHg 81%
    07:00 +7°C° 0 mm 2 mps 714 mmHg 81%
    08:00 +8°C° 0 mm 2 mps 715 mmHg 81%
    09:00 +9°C° 0 mm 2 mps 715 mmHg 81%
    10:00 +9°C° 0.1 mm 3 mps 715 mmHg 78%
    11:00 +10°C° 0.1 mm 4 mps 715 mmHg 75%
    12:00 +11°C° 0.1 mm 4 mps 715 mmHg 72%
    13:00 +10°C° 0.1 mm 5 mps 715 mmHg 70%
    14:00 +10°C° 0.1 mm 6 mps 715 mmHg 69%
    15:00 +10°C° 0.1 mm 6 mps 715 mmHg 67%
    16:00 +9°C° 0 mm 5 mps 715 mmHg 75%
    17:00 +8°C° 0 mm 3 mps 715 mmHg 83%
    18:00 +7°C° 0 mm 2 mps 715 mmHg 91%
    19:00 +6°C° 0 mm 2 mps 715 mmHg 93%
    20:00 +6°C° 0 mm 2 mps 715 mmHg 95%
    21:00 +6°C° 0 mm 2 mps 715 mmHg 96%
    22:00 +5°C° 0 mm 3 mps 715 mmHg 96%
    23:00 +5°C° 0 mm 3 mps 715 mmHg 96%

    24 February, Sunday

    Time Temperature Precipitation Wind Pressure Humidity
    00:00 +5°C° 0 mm 4 mps 715 mmHg 95%
    01:00 +5°C° 0.1 mm 4 mps 715 mmHg 95%
    02:00 +6°C° 0.1 mm 5 mps 715 mmHg 94%
    03:00 +6°C° 0.1 mm 5 mps 714 mmHg 93%
    04:00 +5°C° 0 mm 5 mps 714 mmHg 92%
    05:00 +4°C° 0 mm 4 mps 714 mmHg 91%
    06:00 +3°C° 0 mm 4 mps 714 mmHg 89%
    07:00 +3°C° 0 mm 5 mps 715 mmHg 81%
    08:00 +4°C° 0 mm 6 mps 715 mmHg 72%
    09:00 +5°C° 0 mm 6 mps 716 mmHg 63%
    10:00 +6°C° 0 mm 7 mps 716 mmHg 59%
    11:00 +6°C° 0 mm 7 mps 716 mmHg 55%
    12:00 +8°C° 0 mm 7 mps 716 mmHg 50%
    13:00 +8°C° 0 mm 7 mps 716 mmHg 52%
    14:00 +6°C° 0 mm 7 mps 716 mmHg 53%
    15:00 +7°C° 0 mm 6 mps 715 mmHg 55%
    16:00 +5°C° 0 mm 5 mps 716 mmHg 62%
    17:00 +4°C° 0 mm 4 mps 716 mmHg 69%
    18:00 +2°C° 0 mm 3 mps 716 mmHg 75%
    19:00 +3°C° 0 mm 2 mps 716 mmHg 78%
    20:00 +2°C° 0 mm 2 mps 716 mmHg 80%
    21:00 +2°C° 0 mm 1 mps 717 mmHg 82%
    22:00 +2°C° 0 mm 1 mps 717 mmHg 83%
    23:00 +2°C° 0 mm 1 mps 716 mmHg 84%

    25 February, Monday

    Time Temperature Precipitation Wind Pressure Humidity
    00:00 +1°C° 0 mm 1 mps 716 mmHg 84%
    01:00 +1°C° 0 mm 1 mps 716 mmHg 84%
    02:00 +1°C° 0 mm 1 mps 716 mmHg 83%
    03:00 +1°C° 0 mm 1 mps 716 mmHg 83%
    04:00 +2°C° 0 mm 1 mps 716 mmHg 82%
    05:00 +2°C° 0 mm 1 mps 716 mmHg 81%
    06:00 +3°C° 0 mm 1 mps 716 mmHg 80%
    07:00 +3°C° 0 mm 3 mps 716 mmHg 76%
    08:00 +5°C° 0 mm 4 mps 717 mmHg 72%
    09:00 +6°C° 0 mm 5 mps 717 mmHg 68%
    10:00 +7°C° 0 mm 5 mps 717 mmHg 67%
    11:00 +7°C° 0 mm 5 mps 717 mmHg 67%
    12:00 +7°C° 0 mm 6 mps 716 mmHg 66%
    13:00 +7°C° 0 mm 6 mps 716 mmHg 68%
    14:00 +7°C° 0 mm 6 mps 715 mmHg 69%
    15:00 +7°C° 0 mm 6 mps 714 mmHg 70%
    16:00 +6°C° 0 mm 5 mps 714 mmHg 75%
    17:00 +5°C° 0 mm 4 mps 714 mmHg 80%
    18:00 +4°C° 0 mm 2 mps 714 mmHg 84%
    19:00 +3°C° 0.1 mm 3 mps 714 mmHg 85%
    20:00 +3°C° 0.1 mm 3 mps 714 mmHg 86%
    21:00 +3°C° 0.1 mm 3 mps 714 mmHg 87%
    22:00 +4°C° 0.7 mm 3 mps 714 mmHg 90%
    23:00 +4°C° 0.7 mm 3 mps 714 mmHg 92%

    26 February, Tuesday

    Time Temperature Precipitation Wind Pressure Humidity
    00:00 +4°C° 0.7 mm 3 mps 714 mmHg 95%
    01:00 +4°C° 0.8 mm 3 mps 714 mmHg 94%
    02:00 +3°C° 0.8 mm 3 mps 714 mmHg 93%
    03:00 +3°C° 0.8 mm 3 mps 714 mmHg 92%
    04:00 +3°C° 0 mm 2 mps 714 mmHg 93%
    05:00 +1°C° 0 mm 2 mps 715 mmHg 93%
    06:00 +1°C° 0 mm 1 mps 715 mmHg 93%
    07:00 +3°C° 0 mm 1 mps 715 mmHg 84%
    08:00 +5°C° 0 mm 1 mps 716 mmHg 75%
    09:00 +6°C° 0 mm 1 mps 717 mmHg 66%
    10:00 +8°C° 0 mm 1 mps 717 mmHg 61%
    11:00 +9°C° 0 mm 1 mps 717 mmHg 56%
    12:00 +10°C° 0 mm 1 mps 717 mmHg 52%
    13:00 +9°C° 0 mm 2 mps 717 mmHg 52%
    14:00 +10°C° 0 mm 3 mps 717 mmHg 53%
    15:00 +10°C° 0 mm 3 mps 716 mmHg 53%
    16:00 +8°C° 0 mm 3 mps 716 mmHg 65%
    17:00 +6°C° 0 mm 2 mps 716 mmHg 76%
    18:00 +4°C° 0 mm 2 mps 716 mmHg 88%
    19:00 +5°C° 0 mm 1 mps 716 mmHg 89%
    20:00 +4°C° 0 mm 1 mps 716 mmHg 91%
    21:00 +2°C° 0 mm 0 mps 717 mmHg 93%
    22:00 +2°C° 0 mm 0 mps 716 mmHg 92%
    23:00 +3°C° 0 mm 1 mps 716 mmHg 91%
    Show more